Location: Bothwell
(42.3833°S, 147.0000°E)
Time: 21:31:11
(UTC+11:00)

RS-44 - Pass Details

Date: 02 October 2022
Orbit: 1175 x 1510 km, 82.5° (Epoch: 29 November)

Event Time Altitude Azimuth Distance (km) Brightness Sun altitude
Exits shadow 23:08:49 57° 137° (SE) 1,734 ? -37.4°
Drops below altitude 10° 23:16:01 10° 167° (SSE) 3,701 ? -38.1°
Sets 23:18:58 0° 169° (S) 4,684 ? -38.4°
